| time (UTC) | temp C | wind direction | speed KPH | gust KPH | rain 1hr cm | rain 24hr cm | rain mn cm | humidity % | barometer mb |
| 20260507051029 | 7 | 40 | 0.0 | 1.6 | 0.00 | 0.00 | 0.00 | 99 | 1012.6 |
| 20260507050525 | 7 | 40 | 0.0 | 0.0 | 0.00 | 0.00 | 0.00 | 99 | 1012.7 |
| 20260507050022 | 7 | 40 | 0.0 | 1.6 | 0.00 | 0.00 | 0.00 | 99 | 1012.6 |
| 20260507045518 | 7 | 40 | 0.0 | 0.0 | 0.00 | 0.00 | 0.00 | 99 | 1012.7 |
| 20260507045016 | 7 | 40 | 0.0 | 1.6 | 0.00 | 0.00 | 0.00 | 99 | 1012.8 |
| 20260507044512 | 7 | 40 | 0.0 | 1.6 | 0.00 | 0.00 | 0.00 | 99 | 1012.8 |
| 20260507044009 | 7 | 40 | 0.0 | 1.6 | 0.00 | 0.00 | 0.00 | 99 | 1013.0 |
| 20260507043505 | 7 | 40 | 0.0 | 0.0 | 0.00 | 0.00 | 0.00 | 99 | 1012.9 |
| 20260507043002 | 7 | 40 | 0.0 | 0.0 | 0.00 | 0.00 | 0.00 | 99 | 1012.7 |
| 20260507042458 | 6 | 40 | 0.0 | 1.6 | 0.00 | 0.00 | 0.00 | 99 | 1012.9 |
| 20260507041954 | 7 | 40 | 0.0 | 0.0 | 0.00 | 0.00 | 0.00 | 99 | 1012.7 |
| 20260507041451 | 7 | 40 | 0.0 | 0.0 | 0.00 | 0.00 | 0.00 | 99 | 1012.7 |
| 20260507040948 | 6 | 40 | 0.0 | 0.0 | 0.00 | 0.00 | 0.00 | 99 | 1012.5 |
| 20260507040443 | 6 | 40 | 0.0 | 0.0 | 0.00 | 0.00 | 0.00 | 99 | 1012.6 |
| 20260507035940 | 6 | 40 | 0.0 | 0.0 | 0.00 | 0.43 | 0.43 | 99 | 1012.5 |
| 20260507035437 | 7 | 40 | 0.0 | 0.0 | 0.00 | 0.43 | 0.43 | 99 | 1012.6 |
| 20260507034933 | 7 | 40 | 0.0 | 0.0 | 0.00 | 0.43 | 0.43 | 99 | 1012.7 |
| 20260507034430 | 7 | 40 | 0.0 | 0.0 | 0.00 | 0.43 | 0.43 | 99 | 1012.6 |
| 20260507033928 | 7 | 40 | 0.0 | 0.0 | 0.00 | 0.43 | 0.43 | 99 | 1012.5 |
| 20260507033426 | 7 | 40 | 0.0 | 0.0 | 0.00 | 0.43 | 0.43 | 99 | 1012.4 |
| 20260507032922 | 7 | 40 | 0.0 | 0.0 | 0.00 | 0.43 | 0.43 | 99 | 1012.7 |
| 20260507032420 | 7 | 40 | 0.0 | 0.0 | 0.00 | 0.43 | 0.43 | 99 | 1012.6 |
| 20260507031915 | 7 | 41 | 1.6 | 1.6 | 0.00 | 0.43 | 0.43 | 99 | 1012.6 |
| 20260507031412 | 7 | 40 | 0.0 | 0.0 | 0.00 | 0.43 | 0.43 | 99 | 1012.6 |
| 20260507030909 | 7 | 40 | 0.0 | 1.6 | 0.00 | 0.43 | 0.43 | 99 | 1012.4 |
| 20260507030406 | 8 | 40 | 0.0 | 0.0 | 0.00 | 0.43 | 0.43 | 99 | 1012.3 |
| 20260507025903 | 8 | 41 | 1.6 | 1.6 | 0.00 | 0.43 | 0.43 | 99 | 1012.4 |
| 20260507025401 | 8 | 40 | 0.0 | 1.6 | 0.00 | 0.43 | 0.43 | 99 | 1012.6 |
| 20260507024858 | 8 | 40 | 0.0 | 0.0 | 0.00 | 0.43 | 0.43 | 99 | 1012.6 |
| 20260507024355 | 8 | 40 | 0.0 | 0.0 | 0.00 | 0.43 | 0.43 | 99 | 1012.3 |
| 20260507023851 | 8 | 40 | 0.0 | 1.6 | 0.00 | 0.43 | 0.43 | 99 | 1012.5 |
| 20260507023348 | 8 | 9 | 0.0 | 0.0 | 0.00 | 0.43 | 0.43 | 99 | 1012.8 |
| 20260507022845 | 8 | 9 | 0.0 | 0.0 | 0.00 | 0.43 | 0.43 | 99 | 1013.1 |
| 20260507022342 | 8 | 8 | 0.0 | 0.0 | 0.00 | 0.43 | 0.43 | 99 | 1013.0 |
| 20260507021838 | 8 | 8 | 0.0 | 0.0 | 0.00 | 0.43 | 0.43 | 99 | 1013.0 |
| 20260507021333 | 8 | 7 | 1.6 | 1.6 | 0.00 | 0.43 | 0.43 | 99 | 1013.1 |
| 20260507020831 | 8 | 45 | 0.0 | 1.6 | 0.00 | 0.43 | 0.43 | 99 | 1012.7 |
| 20260507020328 | 8 | 45 | 0.0 | 1.6 | 0.00 | 0.43 | 0.43 | 99 | 1012.7 |
| 20260507015825 | 8 | 29 | 0.0 | 0.0 | 0.00 | 0.43 | 0.43 | 99 | 1013.6 |
| 20260507015323 | 8 | 29 | 0.0 | 1.6 | 0.00 | 0.43 | 0.43 | 99 | 1013.4 |
| 20260507014820 | 8 | 29 | 0.0 | 0.0 | 0.00 | 0.43 | 0.43 | 99 | 1013.2 |
| 20260507014316 | 8 | 29 | 0.0 | 0.0 | 0.00 | 0.43 | 0.43 | 99 | 1013.0 |
| 20260507013812 | 8 | 30 | 0.0 | 1.6 | 0.00 | 0.43 | 0.43 | 98 | 1013.1 |
| 20260507013310 | 8 | 29 | 0.0 | 0.0 | 0.00 | 0.43 | 0.43 | 98 | 1013.3 |
| 20260507012807 | 8 | 29 | 0.0 | 0.0 | 0.00 | 0.43 | 0.43 | 98 | 1012.9 |
| 20260507012306 | 8 | 29 | 0.0 | 0.0 | 0.00 | 0.43 | 0.43 | 98 | 1012.8 |
| 20260507011800 | 8 | 29 | 0.0 | 0.0 | 0.00 | 0.43 | 0.43 | 97 | 1012.6 |
| 20260507011257 | 9 | 29 | 0.0 | 1.6 | 0.00 | 0.43 | 0.43 | 97 | 1013.0 |
| 20260507010756 | 9 | 29 | 0.0 | 1.6 | 0.00 | 0.43 | 0.43 | 97 | 1012.9 |
| 20260507010252 | 8 | 29 | 0.0 | 0.0 | 0.00 | 0.43 | 0.43 | 97 | 1013.0 |
| 20260507005750 | 9 | 29 | 0.0 | 0.0 | 0.00 | 0.43 | 0.43 | 97 | 1012.9 |
| 20260507005246 | 9 | 29 | 0.0 | 0.0 | 0.00 | 0.43 | 0.43 | 96 | 1012.9 |
| 20260507004743 | 9 | 29 | 0.0 | 0.0 | 0.00 | 0.43 | 0.43 | 96 | 1012.8 |
| 20260507004241 | 9 | 29 | 0.0 | 0.0 | 0.00 | 0.43 | 0.43 | 95 | 1012.7 |
| 20260507003737 | 9 | 29 | 0.0 | 0.0 | 0.00 | 0.43 | 0.43 | 95 | 1012.5 |
| 20260507003232 | 9 | 29 | 0.0 | 1.6 | 0.00 | 0.43 | 0.43 | 96 | 1012.4 |
| 20260507002728 | 9 | 29 | 0.0 | 0.0 | 0.00 | 0.43 | 0.43 | 96 | 1012.5 |
| 20260507002224 | 9 | 29 | 0.0 | 0.0 | 0.00 | 0.43 | 0.43 | 96 | 1012.5 |
| 20260507001721 | 9 | 28 | 0.0 | 0.0 | 0.00 | 0.43 | 0.43 | 96 | 1012.4 |
| 20260507001219 | 9 | 29 | 1.6 | 1.6 | 0.00 | 0.43 | 0.43 | 96 | 1012.3 |
| 20260507000715 | 10 | 26 | 0.0 | 0.0 | 0.00 | 0.43 | 0.43 | 95 | 1012.0 |
| 20260507000212 | 10 | 354 | 0.0 | 0.0 | 0.00 | 0.43 | 0.43 | 95 | 1012.0 |
| 20260506235708 | 9 | 353 | 0.0 | 0.0 | 0.00 | 0.43 | 0.43 | 94 | 1012.1 |
| 20260506235203 | 10 | 3 | 1.6 | 1.6 | 0.00 | 0.43 | 0.43 | 93 | 1011.9 |
| 20260506234700 | 10 | 8 | 1.6 | 1.6 | 0.00 | 0.43 | 0.43 | 93 | 1011.5 |
| 20260506234157 | 10 | 10 | 1.6 | 1.6 | 0.00 | 0.43 | 0.43 | 93 | 1011.9 |
| 20260506233655 | 10 | 23 | 1.6 | 1.6 | 0.00 | 0.43 | 0.43 | 94 | 1011.9 |
| 20260506233151 | 10 | 23 | 0.0 | 0.0 | 0.00 | 0.43 | 0.43 | 94 | 1011.8 |
| 20260506232648 | 10 | 23 | 0.0 | 0.0 | 0.00 | 0.43 | 0.43 | 93 | 1011.9 |
| 20260506232143 | 10 | 23 | 0.0 | 1.6 | 0.00 | 0.43 | 0.43 | 93 | 1011.8 |
| 20260506231640 | 10 | 10 | 0.0 | 1.6 | 0.00 | 0.43 | 0.43 | 93 | 1011.7 |
| 20260506231139 | 10 | 19 | 1.6 | 1.6 | 0.00 | 0.43 | 0.43 | 93 | 1011.7 |
| 20260506230635 | 10 | 18 | 1.6 | 3.2 | 0.00 | 0.43 | 0.43 | 92 | 1011.9 |
| 20260506230131 | 10 | 19 | 1.6 | 3.2 | 0.00 | 0.43 | 0.43 | 92 | |
| 20260506182257 | 12 | 341 | 3.2 | 8.0 | 0.00 | 0.33 | 0.33 | 95 | 1007.8 |
| 20260506181755 | 12 | 341 | 3.2 | 8.0 | 0.00 | 0.33 | 0.33 | 95 | 1007.8 |
| 20260506181253 | 12 | 9 | 3.2 | 12.9 | 0.00 | 0.33 | 0.33 | 95 | 1008.0 |
| 20260506180750 | 12 | 339 | 1.6 | 12.9 | 0.00 | 0.33 | 0.33 | 94 | 1007.9 |
| 20260506180246 | 13 | 341 | 1.6 | 12.9 | 0.00 | 0.33 | 0.33 | 93 | 1007.5 |
| 20260506175742 | 15 | 303 | 1.6 | 4.8 | 0.00 | 0.33 | 0.33 | 92 | 1007.4 |
| 20260506175239 | 17 | 21 | 1.6 | 8.0 | 0.00 | 0.33 | 0.33 | 91 | 1007.1 |
| 20260506174737 | 17 | 320 | 4.8 | 8.0 | 0.00 | 0.33 | 0.33 | 88 | 1006.8 |
| 20260506174233 | 17 | 327 | 3.2 | 8.0 | 0.00 | 0.33 | 0.33 | 90 | 1006.8 |
| 20260506173731 | 17 | 342 | 4.8 | 9.7 | 0.00 | 0.33 | 0.33 | 88 | 1006.9 |
| 20260506173222 | 17 | 163 | 9.7 | 11.3 | 0.00 | 0.33 | 0.33 | 91 | 1006.9 |
| 20260506172719 | 16 | 254 | 3.2 | 4.8 | 0.00 | 0.33 | 0.33 | 89 | 1006.9 |
| 20260506172215 | 17 | 207 | 4.8 | 4.8 | 0.00 | 0.33 | 0.33 | 90 | 1007.0 |
| 20260506171713 | 16 | 299 | 3.2 | 8.0 | 0.00 | 0.33 | 0.33 | 90 | 1006.9 |
| 20260506171210 | 16 | 348 | 1.6 | 4.8 | 0.00 | 0.33 | 0.33 | 91 | 1006.9 |
| 20260506170708 | 16 | 201 | 3.2 | 8.0 | 0.00 | 0.33 | 0.33 | 91 | 1006.9 |
| 20260506170204 | 16 | 48 | 1.6 | 3.2 | 0.00 | 0.33 | 0.33 | 94 | 1007.2 |
| 20260506165703 | 16 | 0 | 3.2 | 4.8 | 0.00 | 0.33 | 0.33 | 95 | 1007.2 |
| 20260506165159 | 16 | 353 | 1.6 | 1.6 | 0.00 | 0.33 | 0.33 | 96 | 1007.2 |
| 20260506164656 | 16 | 332 | 0.0 | 1.6 | 0.00 | 0.33 | 0.33 | 94 | 1007.3 |
| 20260506164154 | 16 | 2 | 0.0 | 1.6 | 0.00 | 0.33 | 0.33 | 95 | 1007.3 |
| 20260506163650 | 16 | 344 | 1.6 | 3.2 | 0.00 | 0.33 | 0.33 | 95 | 1007.2 |
| 20260506163145 | 15 | 39 | 0.0 | 1.6 | 0.00 | 0.33 | 0.33 | 95 | 1007.3 |
| 20260506162641 | 16 | 48 | 1.6 | 1.6 | 0.00 | 0.33 | 0.33 | 97 | 1007.4 |
| 20260506162139 | 15 | 38 | 3.2 | 3.2 | 0.00 | 0.33 | 0.33 | 97 | 1007.4 |
| 20260506161636 | 15 | 13 | 0.0 | 0.0 | 0.00 | 0.33 | 0.33 | 97 | 1007.4 |
| 20260506161133 | 15 | 49 | 1.6 | 4.8 | 0.00 | 0.33 | 0.33 | 97 | 1007.3 |
| 20260506160630 | 15 | 93 | 3.2 | 9.7 | 0.00 | 0.33 | 0.33 | 97 | 1007.4 |
| 20260506160127 | 15 | 313 | 3.2 | 8.0 | 0.00 | 0.33 | 0.33 | 97 | 1007.4 |
| 20260506155626 | 15 | 27 | 1.6 | 4.8 | 0.00 | 0.33 | 0.33 | 99 | 1007.3 |
| 20260506155122 | 15 | 21 | 0.0 | 1.6 | 0.00 | 0.33 | 0.33 | 99 | 1007.4 |
| 20260506153219 | 15 | 319 | 1.6 | 3.2 | 0.00 | 0.33 | 0.33 | 99 | 1007.3 |
| 20260506152715 | 15 | 3 | 0.0 | 1.6 | 0.00 | 0.33 | 0.33 | 99 | 1007.6 |
| 20260506152213 | 14 | 26 | 0.0 | 3.2 | 0.00 | 0.33 | 0.33 | 99 | 1007.5 |
| 20260506151712 | 14 | 205 | 4.8 | 8.0 | 0.00 | 0.33 | 0.33 | 99 | 1007.4 |
| 20260506151208 | 14 | 38 | 0.0 | 1.6 | 0.00 | 0.33 | 0.33 | 99 | 1007.5 |
| 20260506150704 | 14 | 282 | 3.2 | 3.2 | 0.18 | 0.33 | 0.33 | 99 | 1007.4 |
| 20260506150202 | 14 | 30 | 0.0 | 1.6 | 0.18 | 0.33 | 0.33 | 99 | 1007.5 |
| 20260506145659 | 14 | 31 | 1.6 | 3.2 | 0.00 | 0.30 | 0.30 | 99 | 1007.5 |
| 20260506145155 | 14 | 314 | 1.6 | 3.2 | 0.00 | 0.30 | 0.30 | 99 | 1007.3 |
| 20260506144653 | 14 | 38 | 1.6 | 1.6 | 0.00 | 0.30 | 0.30 | 99 | 1007.2 |
| 20260506144149 | 14 | 64 | 0.0 | 1.6 | 0.00 | 0.30 | 0.30 | 99 | 1007.3 |
| 20260506143647 | 14 | 8 | 0.0 | 1.6 | 0.00 | 0.30 | 0.30 | 99 | 1007.2 |
| 20260506143145 | 13 | 46 | 0.0 | 1.6 | 0.00 | 0.30 | 0.30 | 99 | 1007.3 |
| 20260506142643 | 14 | 55 | 1.6 | 4.8 | 0.00 | 0.30 | 0.30 | 99 | 1007.3 |
| 20260506142141 | 13 | 50 | 0.0 | 1.6 | 0.00 | 0.30 | 0.30 | 99 | 1007.3 |
| 20260506141638 | 14 | 41 | 0.0 | 1.6 | 0.00 | 0.30 | 0.30 | 99 | 1007.4 |
| 20260506141136 | 14 | 41 | 0.0 | 0.0 | 0.13 | 0.30 | 0.30 | 99 | 1007.4 |
| 20260506140633 | 13 | 41 | 0.0 | 0.0 | 0.13 | 0.30 | 0.30 | 99 | 1007.5 |
| 20260506140131 | 13 | 1 | 0.0 | 1.6 | 0.00 | 0.28 | 0.28 | 99 | 1007.6 |
| 20260506135628 | 13 | 1 | 0.0 | 0.0 | 0.00 | 0.28 | 0.28 | 99 | 1007.4 |
| 20260506135124 | 13 | 1 | 0.0 | 1.6 | 0.00 | 0.28 | 0.28 | 99 | 1007.3 |
| 20260506134620 | 13 | 0 | 1.6 | 1.6 | 0.00 | 0.28 | 0.28 | 99 | 1007.5 |
| 20260506134116 | 13 | 28 | 0.0 | 1.6 | 0.00 | 0.28 | 0.28 | 99 | 1007.3 |
| 20260506133614 | 13 | 340 | 0.0 | 0.0 | 0.00 | 0.28 | 0.28 | 99 | 1007.5 |
| 20260506133110 | 13 | 338 | 1.6 | 1.6 | 0.00 | 0.28 | 0.28 | 99 | 1007.7 |
| 20260506132608 | 13 | 17 | 0.0 | 1.6 | 0.18 | 0.28 | 0.28 | 99 | 1007.4 |
| 20260506132105 | 13 | 65 | 3.2 | 3.2 | 0.18 | 0.28 | 0.28 | 99 | 1007.3 |
| 20260506131602 | 13 | 60 | 1.6 | 3.2 | 0.00 | 0.25 | 0.25 | 99 | 1007.5 |
| 20260506131058 | 12 | 50 | 0.0 | 1.6 | 0.13 | 0.25 | 0.25 | 99 | 1007.8 |
| 20260506130555 | 12 | 10 | 0.0 | 0.0 | 0.13 | 0.25 | 0.25 | 99 | 1007.9 |
| 20260506130053 | 12 | 10 | 0.0 | 1.6 | 0.18 | 0.23 | 0.23 | 99 | 1008.4 |
| 20260506125551 | 12 | 9 | 0.0 | 1.6 | 0.36 | 0.23 | 0.23 | 99 | 1008.3 |
| 20260506125048 | 12 | 10 | 0.0 | 1.6 | 0.30 | 0.20 | 0.20 | 99 | 1008.3 |
| 20260506124546 | 12 | 11 | 1.6 | 1.6 | 0.13 | 0.18 | 0.18 | 99 | 1008.3 |
| 20260506124044 | 12 | 22 | 0.0 | 1.6 | 0.18 | 0.15 | 0.15 | 99 | 1008.1 |
| 20260506123541 | 12 | 22 | 0.0 | 0.0 | 0.18 | 0.15 | 0.15 | 99 | 1008.3 |
| 20260506123040 | 12 | 22 | 0.0 | 1.6 | 0.13 | 0.13 | 0.13 | 99 | 1008.2 |
| 20260506122535 | 12 | 22 | 0.0 | 0.0 | 0.13 | 0.13 | 0.13 | 99 | 1008.3 |
| 20260506122034 | 12 | 25 | 0.0 | 0.0 | 0.18 | 0.10 | 0.10 | 99 | 1008.3 |
| 20260506121531 | 12 | 27 | 0.0 | 0.0 | 0.30 | 0.10 | 0.10 | 99 | 1008.1 |
| 20260506121027 | 12 | 26 | 0.0 | 0.0 | 0.13 | 0.08 | 0.08 | 99 | 1008.3 |
| 20260506120525 | 12 | 26 | 0.0 | 0.0 | 0.00 | 0.05 | 0.05 | 99 | 1008.3 |
| 20260506120022 | 12 | 26 | 0.0 | 0.0 | 0.18 | 0.05 | 0.05 | 99 | 1008.1 |
| 20260506115520 | 12 | 26 | 0.0 | 0.0 | 0.18 | 0.05 | 0.05 | 99 | 1008.1 |
| 20260506115019 | 12 | 20 | 0.0 | 1.6 | 0.00 | 0.03 | 0.03 | 99 | 1008.0 |
| 20260506114515 | 12 | 20 | 0.0 | 1.6 | 0.00 | 0.03 | 0.03 | 99 | 1008.1 |
| 20260506114014 | 12 | 17 | 0.0 | 1.6 | 0.00 | 0.03 | 0.03 | 99 | 1008.1 |
| 20260506113511 | 12 | 18 | 0.0 | 1.6 | 0.00 | 0.03 | 0.03 | 99 | 1008.0 |
| 20260506113009 | 12 | 18 | 0.0 | 1.6 | 0.00 | 0.03 | 0.03 | 99 | 1008.1 |
| 20260506112505 | 12 | 17 | 0.0 | 0.0 | 0.00 | 0.03 | 0.03 | 99 | 1008.3 |
| 20260506112003 | 12 | 18 | 0.0 | 0.0 | 0.00 | 0.03 | 0.03 | 99 | 1008.2 |
| 20260506111501 | 12 | 17 | 0.0 | 0.0 | 0.00 | 0.03 | 0.03 | 99 | 1008.4 |
| 20260506110957 | 11 | 17 | 0.0 | 0.0 | 0.00 | 0.03 | 0.03 | 99 | 1008.7 |
| 20260506110455 | 11 | 17 | 0.0 | 0.0 | 0.00 | 0.03 | 0.03 | 99 | 1008.5 |
| 20260506105951 | 11 | 358 | 1.6 | 1.6 | 0.00 | 0.03 | 0.03 | 99 | 1008.3 |
| 20260506105448 | 11 | 26 | 0.0 | 1.6 | 0.00 | 0.03 | 0.03 | 99 | 1008.0 |
| 20260506104945 | 11 | 27 | 0.0 | 0.0 | 0.00 | 0.03 | 0.03 | 99 | 1008.2 |
| 20260506104443 | 11 | 27 | 0.0 | 0.0 | 0.00 | 0.03 | 0.03 | 99 | 1008.2 |
| 20260506103941 | 11 | 25 | 0.0 | 1.6 | 0.00 | 0.03 | 0.03 | 99 | 1008.1 |
| 20260506103438 | 11 | 26 | 0.0 | 1.6 | 0.00 | 0.03 | 0.03 | 99 | 1008.1 |
| 20260506102935 | 11 | 25 | 0.0 | 0.0 | 0.00 | 0.03 | 0.03 | 99 | 1008.1 |
| 20260506102433 | 11 | 25 | 0.0 | 0.0 | 0.00 | 0.03 | 0.03 | 99 | 1008.3 |
| 20260506101930 | 11 | 25 | 0.0 | 0.0 | 0.00 | 0.03 | 0.03 | 99 | 1008.5 |
| 20260506101426 | 11 | 25 | 0.0 | 0.0 | 0.00 | 0.03 | 0.03 | 99 | 1008.4 |
| 20260506100924 | 11 | 25 | 0.0 | 0.0 | 0.00 | 0.03 | 0.03 | 99 | 1008.3 |
| 20260506100422 | 11 | 26 | 0.0 | 0.0 | 0.00 | 0.03 | 0.03 | 99 | 1008.1 |
| 20260506095920 | 11 | 25 | 0.0 | 0.0 | 0.00 | 0.03 | 0.03 | 99 | 1008.2 |
| 20260506095418 | 11 | 25 | 0.0 | 0.0 | 0.13 | 0.03 | 0.03 | 99 | 1008.1 |
| 20260506094914 | 11 | 25 | 0.0 | 0.0 | 0.13 | 0.03 | 0.03 | 99 | 1008.1 |
| 20260506094413 | 11 | 25 | 0.0 | 0.0 | 0.00 | 0.00 | 0.00 | 99 | 1007.8 |
| 20260506093910 | 11 | 25 | 0.0 | 0.0 | 0.00 | 0.00 | 0.00 | 99 | 1008.0 |
| 20260506093407 | 11 | 25 | 0.0 | 0.0 | 0.00 | 0.00 | 0.00 | 99 | 1007.9 |
| 20260506092905 | 11 | 25 | 0.0 | 0.0 | 0.00 | 0.00 | 0.00 | 99 | 1007.8 |
| 20260506092403 | 11 | 25 | 0.0 | 0.0 | 0.00 | 0.00 | 0.00 | 99 | 1007.9 |
| 20260506091859 | 11 | 25 | 0.0 | 0.0 | 0.00 | 0.00 | 0.00 | 99 | 1008.1 |
| 20260506091357 | 11 | 25 | 0.0 | 0.0 | 0.00 | 0.00 | 0.00 | 99 | 1008.0 |
| 20260506090854 | 11 | 25 | 0.0 | 0.0 | 0.00 | 0.00 | 0.00 | 99 | 1008.2 |
| 20260506090352 | 11 | 25 | 0.0 | 0.0 | 0.00 | 0.00 | 0.00 | 99 | 1008.0 |
| 20260506085848 | 12 | 25 | 0.0 | 0.0 | 0.00 | 0.00 | 0.00 | 99 | 1008.2 |
| 20260506085345 | 12 | 25 | 0.0 | 0.0 | 0.00 | 0.00 | 0.00 | 99 | 1008.3 |
| 20260506084841 | 12 | 26 | 0.0 | 0.0 | 0.00 | 0.00 | 0.00 | 99 | 1008.4 |
| 20260506084338 | 12 | 26 | 1.6 | 1.6 | 0.00 | 0.00 | 0.00 | 98 | 1008.1 |
| 20260506083835 | 12 | 19 | 0.0 | 0.0 | 0.00 | 0.00 | 0.00 | 97 | 1008.5 |
| 20260506083332 | 12 | 19 | 0.0 | 0.0 | 0.00 | 0.00 | 0.00 | 97 | 1008.7 |
| 20260506082830 | 12 | 19 | 0.0 | 1.6 | 0.00 | 0.00 | 0.00 | 96 | 1008.5 |
| 20260506082326 | 12 | 17 | 0.0 | 1.6 | 0.00 | 0.00 | 0.00 | 96 | 1008.7 |
| 20260506081822 | 12 | 17 | 0.0 | 0.0 | 0.00 | 0.00 | 0.00 | 95 | 1008.8 |
| 20260506081320 | 12 | 21 | 0.0 | 0.0 | 0.00 | 0.00 | 0.00 | 95 | 1008.9 |
| 20260506080818 | 12 | 21 | 0.0 | 0.0 | 0.00 | 0.00 | 0.00 | 94 | 1008.9 |
| 20260506080314 | 12 | 21 | 0.0 | 0.0 | 0.00 | 0.00 | 0.00 | 94 | 1008.7 |
| 20260506073258 | 12 | 23 | 0.0 | 1.6 | 0.00 | 0.00 | 0.00 | 93 | 1008.7 |
| 20260506072755 | 12 | 18 | 0.0 | 1.6 | 0.00 | 0.00 | 0.00 | 94 | 1008.2 |
| 20260506072252 | 12 | 18 | 0.0 | 3.2 | 0.00 | 0.00 | 0.00 | 95 | 1008.2 |
| 20260506071750 | 12 | 20 | 1.6 | 3.2 | 0.00 | 0.00 | 0.00 | 96 | 1008.2 |
| 20260506071248 | 12 | 5 | 0.0 | 0.0 | 0.00 | 0.00 | 0.00 | 96 | 1008.3 |
| 20260506070744 | 12 | 5 | 0.0 | 1.6 | 0.00 | 0.00 | 0.00 | 96 | 1008.4 |
| 20260506070241 | 12 | 5 | 1.6 | 1.6 | 0.00 | 0.00 | 0.00 | 96 | 1008.2 |
| 20260506062218 | 12 | 5 | 0.0 | 0.0 | 0.00 | 0.00 | 0.00 | 95 | 1008.8 |
| 20260506061714 | 12 | 5 | 0.0 | 0.0 | 0.00 | 0.00 | 0.00 | 94 | 1009.0 |
| 20260506061212 | 12 | 5 | 0.0 | 0.0 | 0.00 | 0.00 | 0.00 | 94 | 1009.1 |
| 20260506060711 | 13 | 5 | 0.0 | 0.0 | 0.00 | 0.00 | 0.00 | 94 | 1009.2 |
| 20260506060207 | 13 | 5 | 0.0 | 0.0 | 0.00 | 0.00 | 0.00 | 93 | 1009.2 |
| 20260506051139 | 12 | 23 | 0.0 | 1.6 | 0.00 | 0.00 | 0.00 | 94 | 1009.8 |